Regional Weather Roundup
Issued by NWS Newport/Morehead, NC

Current Version | Previous Version | Graphics & Text | Print | Product List | Glossary Off
Versions: 1 2 3 4 5 6 7 8 9 10 11 12 13 14 15 16 17 18 19 20 21 22 23 24 25 26 27 28 29 30 31 32 33 34 35 36 37 38 39 40 41 42 43 44 45 46 47 48 49 50

000
ASUS42 KMHX 272024
RWRMHX
WEATHER ROUNDUP FOR EASTERN NORTH CAROLINA
NATIONAL WEATHER SERVICE NEWPORT/MOREHEAD CITY NC
400 PM EDT FRI MAR 27 2015

NOTE: "FAIR" INDICATES FEW OR NO CLOUDS BELOW 12,000 FEET
WITH NO SIGNIFICANT WEATHER AND/OR OBSTRUCTIONS TO VISIBILITY

NCZ015>017-031-032-045>047-102-103-272100-
NORTH COAST

CITY           SKY/WX    TMP DP  RH WIND       PRES   REMARKS
EDENTON        RAIN      43  41  91 NE9G16    29.74R
ELIZABETH CITY CLOUDY    44  41  89 N20G25    29.74R
KITTY HAWK     CLOUDY    42  41  97 N10G18    29.69F
MANTEO         LGT RAIN  42  40  95 NE18G30   29.71F

$$

NCZ045>047-081-094-103-104-272100-
CENTRAL COAST

CITY           SKY/WX    TMP DP  RH WIND       PRES   REMARKS
FRISCO         CLOUDY    44  41  89 NE20G31   29.69F
SWANQUARTER      N/A     46 N/A N/A NE6G15    29.68S

$$

NCZ095-097-098-100-101-272100-
SOUTHERN COAST

CITY           SKY/WX    TMP DP  RH WIND       PRES   REMARKS
BEAUFORT       CLOUDY    47  46  97 N16       29.71R
CEDAR ISLAND     N/A     48 N/A N/A VRB18G29  29.77R
JACKSONVILLE   CLOUDY    49  45  86 N13       29.69F
PINEY ISLAND   LGT SNOW N/A N/A N/A NE18G24   29.70F
WILMINGTON     LGT RAIN  51  48  89 NE16      29.68R


$$

NCZ011>013-027>030-043-044-078>080-089-090>093-098-272100-
COASTAL PLAIN

CITY           SKY/WX    TMP DP  RH WIND       PRES   REMARKS
AHOSKIE        LGT RAIN  42  39  90 N7        29.79R
CLINTON        RAIN      47  46  99 NE9G17    29.71F
ELIZABETHTOWN  LGT RAIN  48  47  98 NE5       29.69F
GOLDSBORO      LGT RAIN  46  46 100 NE10      29.72R
GREENVILLE     LGT RAIN  45  45 100 NE13G18   29.76S
HAVELOCK       LGT RAIN  48  45  89 NE12G22   29.70S
KENANSVILLE    LGT RAIN  46  45  95 N15G22    29.73R
KINSTON        HVY RAIN  48  45  87 N10G21    29.73S
NEW BERN       HVY RAIN  47  44  90 NE13      29.70F FOG
RICHLANDS      CLOUDY    46  43  87 NW5       29.76R
ROCKY MOUNT    CLOUDY    45  42  89 N13       29.77R
WASHINGTON     LGT RAIN  46  44  93 NE10      29.70F
WHITEVILLE     CLOUDY    50  48  92 N6        29.68F

$$

AMZ130-135-150-152-154-156-158-170-250-252-270-ANZ085-086-088-633-658-670-272100-
MARINE OBSERVATIONS

STATION/POSITION TIME  TEMP    WIND        PRES    WAVE   SWELL
                       AIR SEA DIR/SP/G            HT/PER HT/PER
                 (UTC) (F)     (DEG/KT/KT) (MB)    (FT/S) (FT/S)
CHESAPEAKE LIGHT 2000   40      20/ 17/ 18 1007.0
64 E VA BEACH    1950   44 52  360/ 23/ 29 1004.7   11/ 8   2/16
DUCK             2000   41 42   10/ 16/ 22 1005.6
2 E DUCK         1911      42                N/A     6/ 7   2/11
10 NE DUCK       NOT AVBL
OREGON INLET     2000   42 57  360/ 16/ 22 1005.6
HATTERAS CG      1900   47 59   10/ 24/ 32 1005.3
CAPE LOOKOUT     2000   48      10/ 14/ 18 1004.8
BEAUFORT LAB     1900   49 58   30/ 13/ 21 1004.7
27 SE WRIGHTSVLE 2000   57 65   30/ 10/ 16 1005.1
5 SE WRIGHTSVLE  2000   53 57   40/ 19/ 23 1003.5
225 S CAPE HAT   1950   71 69  220/ 16/ 19 1006.7   11/ 8  10/ 8
41 SE CHARLESTON 1950   69 70  220/ 21/ 23 1002.7    7/ 6   2/11

$$



USA.gov is the U.S. government's official web portal to all federal, state and local government web resources and services.